FW5142 Weather Reports


time (UTC)temp
C
wind
direction
speed
KPH
gust
KPH
rain 1hr
cm
rain 24hr
cm
rain mn
cm
humidity
%
barometer
mb
20260906215308 38 0 14.5 22.5 0.00 0.00 0.00 30 1010.4
20260906214802 38 0 12.9 22.5 0.00 0.00 0.00 29 1010.5
20260906214255 38 0 14.5 22.5 0.00 0.00 0.00 29 1010.6
20260906213749 38 0 16.1 29.0 0.00 0.00 0.00 29 1010.7
20260906213244 38 0 16.1 29.0 0.00 0.00 0.00 29 1010.7
20260906212738 38 0 16.1 25.7 0.00 0.00 0.00 29 1010.8
20260906212231 38 0 14.5 27.4 0.00 0.00 0.00 29 1010.8
20260906211726 38 0 16.1 25.7 0.00 0.00 0.00 29 1011.0
20260906211219 38 0 16.1 24.1 0.00 0.00 0.00 29 1011.0
20260906210713 38 0 14.5 24.1 0.00 0.00 0.00 30 1011.1
20260906210207 38 0 14.5 24.1 0.00 0.00 0.00 29 1011.1
20260906205701 38 0 16.1 24.1 0.00 0.00 0.00 29 1011.2
20260906204649 39 0 14.5 27.4 0.00 0.00 0.00 29 1011.2
20260906204144 39 0 17.7 27.4 0.00 0.00 0.00 29 1011.3
20260906203638 38 0 12.9 27.4 0.00 0.00 0.00 30 1011.3
20260906203131 38 0 8.0 19.3 0.00 0.00 0.00 29 1011.4
20260906202626 38 0 11.3 24.1 0.00 0.00 0.00 29 1011.5
20260906202119 38 0 14.5 25.7 0.00 0.00 0.00 29 1011.7
20260906201614 38 0 16.1 27.4 0.00 0.00 0.00 30 1011.7
20260906201108 38 0 16.1 27.4 0.00 0.00 0.00 29 1011.7
20260906200609 38 0 14.5 27.4 0.00 0.00 0.00 29 1011.8
20260906200107 38 0 14.5 24.1 0.00 0.00 0.00 29 1011.8
20260906195609 38 0 14.5 27.4 0.00 0.00 0.00 30 1011.9
20260906195107 38 0 14.5 27.4 0.00 0.00 0.00 30 1012.0
20260906194108 38 0 16.1 30.6 0.00 0.00 0.00 31 1012.0
20260906193607 38 0 14.5 30.6 0.00 0.00 0.00 30 1012.0
20260906193106 38 0 11.3 22.5 0.00 0.00 0.00 31 1012.1
20260906192608 38 0 12.9 24.1 0.00 0.00 0.00 31 1012.2
20260906192106 38 0 12.9 24.1 0.00 0.00 0.00 31 1012.3
20260906191603 38 0 9.7 17.7 0.00 0.00 0.00 31 1012.2
20260906191102 38 0 11.3 22.5 0.00 0.00 0.00 31 1012.3
20260906190117 38 0 14.5 27.4 0.00 0.00 0.00 32 1012.5
20260906185603 38 0 11.3 27.4 0.00 0.00 0.00 32 1012.5
20260906185105 38 0 11.3 19.3 0.00 0.00 0.00 31 1012.6
20260906184559 38 0 11.3 19.3 0.00 0.00 0.00 31 1012.7
20260906184053 38 0 11.3 24.1 0.00 0.00 0.00 32 1012.7
20260906183547 38 0 12.9 24.1 0.00 0.00 0.00 32 1012.9
20260906182538 38 0 11.3 20.9 0.00 0.00 0.00 33 1013.0
20260906182036 38 0 12.9 25.7 0.00 0.00 0.00 33 1013.1
20260906181538 37 0 9.7 25.7 0.00 0.00 0.00 34 1013.2
20260906181037 37 0 8.0 22.5 0.00 0.00 0.00 35 1013.2
20260906180536 37 0 9.7 20.9 0.00 0.00 0.00 34 1013.3
20260906180038 37 0 9.7 19.3 0.00 0.00 0.00 35 1013.4
20260906175038 37 0 16.1 29.0 0.00 0.00 0.00 35 1013.5
20260906174538 37 0 11.3 29.0 0.00 0.00 0.00 36 1013.5
20260906173534 36 0 4.8 14.5 0.00 0.00 0.00 39 1013.6
20260906173034 36 0 6.4 14.5 0.00 0.00 0.00 39 1013.7
20260906172533 36 0 4.8 14.5 0.00 0.00 0.00 39 1013.7
20260906172032 35 0 6.4 17.7 0.00 0.00 0.00 39 1013.7
20260906171532 35 0 9.7 19.3 0.00 0.00 0.00 39 1013.9
20260906171032 35 0 6.4 19.3 0.00 0.00 0.00 39 1013.9
20260906170034 35 0 9.7 19.3 0.00 0.00 0.00 40 1014.1
20260906165529 35 0 11.3 20.9 0.00 0.00 0.00 40 1014.3
20260906165028 35 0 8.0 20.9 0.00 0.00 0.00 41 1014.4
20260906164529 35 0 3.2 14.5 0.00 0.00 0.00 42 1014.4
20260906163526 34 0 6.4 14.5 0.00 0.00 0.00 43 1014.5
20260906163026 33 0 4.8 12.9 0.00 0.00 0.00 44 1014.4
20260906162026 33 0 1.6 6.4 0.00 0.00 0.00 45 1014.5
20260906161027 33 0 3.2 6.4 0.00 0.00 0.00 45 1014.4
20260906160526 32 0 3.2 8.0 0.00 0.00 0.00 45 1014.4
20260906160024 32 0 3.2 8.0 0.00 0.00 0.00 46 1014.4
20260906155522 32 0 1.6 6.4 0.00 0.00 0.00 48 1014.4
20260906155016 32 0 1.6 4.8 0.00 0.00 0.00 50 1014.4
20260906154511 32 0 0.0 3.2 0.00 0.00 0.00 50 1014.4
20260906152953 31 0 1.6 4.8 0.00 0.00 0.00 50 1014.3
20260906151940 31 0 3.2 6.4 0.00 0.00 0.00 53 1014.1
20260906151438 31 0 3.2 8.0 0.00 0.00 0.00 53 1014.0
20260906150938 30 0 1.6 8.0 0.00 0.00 0.00 54 1014.0
20260906150439 30 0 1.6 6.4 0.00 0.00 0.00 55 1014.0
20260906145938 30 0 3.2 8.0 0.00 0.00 0.00 55 1014.0
20260906145439 30 0 3.2 9.7 0.00 0.00 0.00 56 1014.0
20260906144939 29 0 3.2 9.7 0.00 0.00 0.00 55 1014.1
20260906144437 29 0 1.6 6.4 0.00 0.00 0.00 57 1014.1
20260906143937 28 0 1.6 6.4 0.00 0.00 0.00 58 1014.1
20260906143435 28 0 1.6 6.4 0.00 0.00 0.00 60 1014.3
20260906142935 28 0 3.2 8.0 0.00 0.00 0.00 60 1014.3
20260906142433 28 0 4.8 8.0 0.00 0.00 0.00 61 1014.3
20260906141933 27 0 4.8 8.0 0.00 0.00 0.00 61 1014.3
20260906141432 27 0 3.2 8.0 0.00 0.00 0.00 62 1014.1
20260906140933 27 0 1.6 8.0 0.00 0.00 0.00 63 1014.1
20260906135931 26 0 3.2 6.4 0.00 0.00 0.00 64 1014.1
20260906134930 26 0 3.2 8.0 0.00 0.00 0.00 65 1014.1
20260906134424 26 0 4.8 8.0 0.00 0.00 0.00 66 1014.0
20260906133412 25 0 6.4 12.9 0.00 0.00 0.00 67 1014.0
20260906132906 25 0 6.4 12.9 0.00 0.00 0.00 68 1014.0
20260906132400 25 0 6.4 9.7 0.00 0.00 0.00 68 1014.0
20260906131854 24 0 6.4 12.9 0.00 0.00 0.00 69 1013.9
20260906131348 24 0 6.4 12.9 0.00 0.00 0.00 69 1013.9
20260906130855 23 0 6.4 12.9 0.00 0.00 0.00 68 1013.8
20260906130337 23 0 4.8 12.9 0.00 0.00 0.00 68 1013.7
20260906125830 23 0 4.8 9.7 0.00 0.00 0.00 67 1013.6
20260906125324 22 0 3.2 6.4 0.00 0.00 0.00 66 1013.7
20260906124818 22 0 1.6 4.8 0.00 0.00 0.00 64 1013.6
20260906124311 22 0 1.6 4.8 0.00 0.00 0.00 63 1013.5
20260906123806 22 0 1.6 3.2 0.00 0.00 0.00 62 1013.4
20260906123300 22 0 0.0 1.6 0.00 0.00 0.00 62 1013.3
20260906122754 22 0 1.6 4.8 0.00 0.00 0.00 62 1013.2
20260906122248 22 0 1.6 4.8 0.00 0.00 0.00 61 1013.2
20260906121742 22 0 0.0 4.8 0.00 0.00 0.00 61 1013.1
20260906121236 22 0 0.0 1.6 0.00 0.00 0.00 61 1013.0
20260906120730 22 0 0.0 1.6 0.00 0.00 0.00 60 1013.0
20260906120224 22 0 0.0 1.6 0.00 0.00 0.00 61 1013.0
20260906115718 23 0 0.0 3.2 0.00 0.00 0.00 60 1012.9
20260906115212 23 0 1.6 3.2 0.00 0.00 0.00 61 1012.9
20260906114706 23 0 1.6 3.2 0.00 0.00 0.00 61 1012.8
20260906113654 23 0 0.0 0.0 0.00 0.00 0.00 61 1012.7
20260906113148 23 0 0.0 0.0 0.00 0.00 0.00 60 1012.6
20260906112642 23 0 0.0 1.6 0.00 0.00 0.00 59 1012.6
20260906112136 23 0 0.0 1.6 0.00 0.00 0.00 58 1012.7
20260906111630 23 0 0.0 3.2 0.00 0.00 0.00 58 1012.7
20260906105605 23 0 0.0 3.2 0.00 0.00 0.00 57 1012.6
20260906105100 23 0 0.0 4.8 0.00 0.00 0.00 58 1012.6
20260906104553 23 0 1.6 4.8 0.00 0.00 0.00 58 1012.5
20260906104050 23 0 3.2 4.8 0.00 0.00 0.00 58 1012.4
20260906103542 23 0 3.2 6.4 0.00 0.00 0.00 58 1012.4
20260906103035 23 0 1.6 6.4 0.00 0.00 0.00 57 1012.4
20260906102542 23 0 1.6 4.8 0.00 0.00 0.00 57 1012.3
20260906101518 23 0 0.0 0.0 0.00 0.00 0.00 57 1012.3
20260906101025 23 0 0.0 0.0 0.00 0.00 0.00 58 1012.3
20260906100507 24 0 0.0 0.0 0.00 0.00 0.00 57 1012.4
20260906095959 24 0 0.0 0.0 0.00 0.00 0.00 57 1012.3
20260906095454 24 0 0.0 0.0 0.00 0.00 0.00 57 1012.2
20260906094947 24 0 0.0 0.0 0.00 0.00 0.00 56 1012.3
20260906093936 24 0 0.0 0.0 0.00 0.00 0.00 56 1012.2
20260906093442 24 0 0.0 3.2 0.00 0.00 0.00 56 1012.1
20260906092924 24 0 1.6 4.8 0.00 0.00 0.00 56 1012.2
20260906091912 24 0 3.2 4.8 0.00 0.00 0.00 55 1012.2
20260906091405 24 0 3.2 6.4 0.00 0.00 0.00 55 1012.2
20260906090900 25 0 3.2 6.4 0.00 0.00 0.00 54 1012.2
20260906090354 25 0 1.6 4.8 0.00 0.00 0.00 54 1012.1
20260906085846 25 0 1.6 3.2 0.00 0.00 0.00 53 1012.1
20260906085347 25 0 0.0 1.6 0.00 0.00 0.00 53 1012.1
20260906084847 25 155 1.6 3.2 0.00 0.00 0.00 53 1012.0
20260906084346 25 155 1.6 4.8 0.00 0.00 0.00 52 1012.0
20260906083842 25 0 1.6 6.4 0.00 0.00 0.00 53 1012.0
20260906082837 25 0 1.6 4.8 0.00 0.00 0.00 52 1012.0
20260906081833 25 0 0.0 0.0 0.00 0.00 0.00 51 1012.0
20260906080830 26 0 1.6 3.2 0.00 0.00 0.00 51 1012.0
20260906080329 26 0 1.6 3.2 0.00 0.00 0.00 51 1012.1
20260906075829 26 0 0.0 1.6 0.00 0.00 0.00 51 1012.1
20260906075330 26 0 0.0 0.0 0.00 0.00 0.00 51 1012.1
20260906074831 26 0 0.0 1.6 0.00 0.00 0.00 51 1012.1
20260906073325 26 0 1.6 4.8 0.00 0.00 0.00 51 1012.1
20260906072325 26 0 0.0 3.2 0.00 0.00 0.00 51 1012.0
20260906071825 26 0 0.0 3.2 0.00 0.00 0.00 51 1012.0
20260906071325 27 0 1.6 4.8 0.00 0.00 0.00 51 1012.1
20260906070825 27 0 3.2 6.4 0.00 0.00 0.00 51 1011.9
20260906065827 27 0 3.2 8.0 0.00 0.00 0.00 51 1011.9
20260906065321 27 0 3.2 8.0 0.00 0.00 0.00 51 1011.9
20260906064822 27 0 4.8 8.0 0.00 0.00 0.00 51 1011.9
20260906064322 27 0 4.8 8.0 0.00 0.00 0.00 51 1011.9
20260906063821 27 0 4.8 8.0 0.00 0.00 0.00 51 1012.1
20260906062821 27 0 4.8 8.0 0.00 0.00 0.00 51 1012.1
20260906062322 27 0 3.2 8.0 0.00 0.00 0.00 50 1012.1
20260906061322 27 0 3.2 8.0 0.00 0.00 0.00 50 1012.0
20260906060819 27 0 4.8 8.0 0.00 0.00 0.00 49 1012.0
20260906060319 27 0 4.8 9.7 0.00 0.00 0.00 49 1012.1
20260906055819 28 0 4.8 9.7 0.00 0.00 0.00 49 1012.1
20260906055320 28 0 6.4 9.7 0.00 0.00 0.00 49 1012.1
20260906054820 28 0 6.4 9.7 0.00 0.00 0.00 49 1012.2
20260906053817 28 0 6.4 9.7 0.00 0.00 0.00 48 1012.3
20260906053316 28 0 6.4 9.7 0.00 0.00 0.00 48 1012.3
20260906052814 28 0 6.4 9.7 0.00 0.00 0.00 48 1012.3
20260906052313 28 0 6.4 9.7 0.00 0.00 0.00 47 1012.4
20260906051812 28 0 4.8 9.7 0.00 0.00 0.00 47 1012.4
20260906051313 28 0 4.8 8.0 0.00 0.00 0.00 47 1012.5
20260906050813 28 0 6.4 9.7 0.00 0.00 0.00 46 1012.5
20260906045812 28 0 6.4 9.7 0.00 0.00 0.00 46 1012.5
20260906045309 28 0 6.4 8.0 0.00 0.00 0.00 46 1012.5
20260906044809 28 0 4.8 9.7 0.00 0.00 0.00 45 1012.6
20260906044303 29 0 4.8 9.7 0.00 0.00 0.00 45 1012.5
20260906043758 29 0 4.8 9.7 0.00 0.00 0.00 44 1012.5
20260906043252 29 0 4.8 9.7 0.00 0.00 0.00 44 1012.5
20260906042241 29 0 4.8 9.7 0.00 0.00 0.00 44 1012.4
20260906041734 30 0 4.8 9.7 0.00 0.00 0.00 44 1012.4
20260906041228 30 0 6.4 9.7 0.00 0.00 0.00 43 1012.4
20260906040723 30 0 6.4 9.7 0.00 0.00 0.00 43 1012.4
20260906040217 30 0 6.4 9.7 0.00 0.00 0.00 43 1012.3
20260906035710 30 0 6.4 9.7 0.00 0.00 0.00 42 1012.3
20260906034658 30 0 4.8 8.0 0.00 0.00 0.00 42 1012.3
20260906034152 30 0 6.4 9.7 0.00 0.00 0.00 41 1012.2
20260906033647 30 0 6.4 9.7 0.00 0.00 0.00 41 1012.3
20260906032634 31 0 8.0 14.5 0.00 0.00 0.00 41 1012.2
20260906032128 31 0 6.4 14.5 0.00 0.00 0.00 40 1012.0
20260906031623 31 0 6.4 12.9 0.00 0.00 0.00 39 1012.0
20260906030117 31 0 6.4 9.7 0.00 0.00 0.00 39 1011.7
20260906025558 31 0 6.4 9.7 0.00 0.00 0.00 38 1011.5
20260906025052 32 0 4.8 9.7 0.00 0.00 0.00 38 1011.5
20260906024547 32 0 4.8 9.7 0.00 0.00 0.00 37 1011.3
20260906024047 32 0 4.8 8.0 0.00 0.00 0.00 37 1011.3
20260906023544 32 0 4.8 8.0 0.00 0.00 0.00 37 1011.2
20260906023044 32 0 4.8 8.0 0.00 0.00 0.00 36 1011.1
20260906022543 33 0 6.4 8.0 0.00 0.00 0.00 36 1011.0
20260906022043 33 0 4.8 8.0 0.00 0.00 0.00 36 1011.0
20260906021044 33 0 4.8 8.0 0.00 0.00 0.00 34 1010.9
20260906020541 33 0 4.8 8.0 0.00 0.00 0.00 34 1010.8
20260906015537 34 0 4.8 9.7 0.00 0.00 0.00 34 1010.7
20260906015038 34 0 6.4 9.7 0.00 0.00 0.00 34 1010.6
20260906014537 34 0 6.4 9.7 0.00 0.00 0.00 33 1010.5
20260906014037 35 0 6.4 9.7 0.00 0.00 0.00 33 1010.4
20260906013537 35 0 6.4 12.9 0.00 0.00 0.00 33 1010.3
20260906013040 35 0 6.4 12.9 0.00 0.00 0.00 33 1010.2
20260906012036 35 0 8.0 14.5 0.00 0.00 0.00 32 1010.1
20260906011536 36 0 8.0 14.5 0.00 0.00 0.00 32 1010.0
20260906011031 36 0 9.7 16.1 0.00 0.00 0.00 32 1009.9
20260906010523 36 0 9.7 17.7 0.00 0.00 0.00 32 1009.9
20260906010032 36 0 9.7 17.7 0.00 0.00 0.00 31 1009.9
20260906005524 36 0 9.7 20.9 0.00 0.00 0.00 31 1010.0
20260906005023 36 0 11.3 20.9 0.00 0.00 0.00 31 1009.9
20260906004025 37 0 11.3 20.9 0.00 0.00 0.00 31 1009.8
20260906003024 37 0 12.9 22.5 0.00 0.00 0.00 30 1009.7
20260906002524 37 0 14.5 22.5 0.00 0.00 0.00 30 1009.7
20260906002024 37 0 14.5 25.7 0.00 0.00 0.00 30 1009.7
20260906001523 38 0 12.9 25.7 0.00 0.00 0.00 30 1009.6
20260906001036 38 0 12.9 22.5 0.00 0.00 0.00 29 1009.6
20260906000525 38 0 11.3 19.3 0.00 0.00 0.00 29 1009.5
20260906000021 38 0 12.9 19.3 0.00 0.00 0.00 29 1009.5
20260905235021 38 0 14.5 22.5 0.00 0.00 0.00 29 1009.4
20260905234520 38 0 14.5 22.5 0.00 0.00 0.00 29 1009.4
20260905234020 38 0 14.5 22.5 0.00 0.00 0.00 29 1009.3
20260905233019 38 0 12.9 22.5 0.00 0.00 0.00 29 1009.2
20260905232523 38 0 12.9 22.5 0.00 0.00 0.00 29 1009.3
20260905232020 38 0 12.9 22.5 0.00 0.00 0.00 28 1009.4
20260905231515 38 0 14.5 22.5 0.00 0.00 0.00 28 1009.3
20260905231015 38 0 14.5 25.7 0.00 0.00 0.00 28 1009.3
20260905230015 39 0 14.5 25.7 0.00 0.00 0.00 28 1009.3
20260905225517 39 0 12.9 24.1 0.00 0.00 0.00 28 1009.3
20260905225017 39 0 12.9 20.9 0.00 0.00 0.00 28 1009.4
20260905224015 39 0 12.9 22.5 0.00 0.00 0.00 28 1009.4
20260905223517 39 0 12.9 29.0 0.00 0.00 0.00 28 1009.5
20260905223017 39 0 12.9 29.0 0.00 0.00 0.00 28 1009.5
20260905222515 39 0 12.9 24.1 0.00 0.00 0.00 28 1009.4
20260905222016 39 0 9.7 22.5 0.00 0.00 0.00 28 1009.5
20260905221516 39 0 11.3 24.1 0.00 0.00 0.00 28 1009.5
20260905221015 39 0 14.5 27.4 0.00 0.00 0.00 28 1009.5
20260905220517 39 0 14.5 27.4 0.00 0.00 0.00 28 1009.6
20260905220017 39 0 9.7 20.9 0.00 0.00 0.00 28 1009.6